This demonstration page uses our WeatherBlox Daily Observations layout. Learn more.

Left ArrowRight Arrow

39.01783, -85.05884

Hourly Observations for February 25, 2016

Temp ( °F °C ) Dew Point ( °F °C ) Humidity (%) Winds ( mph kmh ) Pressure ( in mb ) Visibility ( mi km ) Precip ( " mm )
12:52 am 00:52 Cloudy with Light Rain/Snow 34 1.1 32 undefined 92 92 WNW 20 31 29.52 1000 4 6 N/A
1:52 am 01:52 Cloudy with Light Snow 33 0.6 31 -0.6 92 92 WNW 16 26 29.55 1001 6 10 N/A
2:52 am 02:52 Cloudy with Light Snow 33 0.6 31 -0.6 92 92 W 16 26 29.58 1002 6 10 0.01 0.25
3:52 am 03:52 Cloudy 33 0.6 28 -2.2 82 82 WNW 18 30 29.61 1003 10 16 N/A
4:52 am 04:52 Cloudy with Light Snow 33 0.6 31 -0.6 92 92 W 18 30 29.63 1003 5 8 N/A
5:43 am 05:43 Windy with Snow Likely 34 1 30 -1 87 87 W 23 37 29.68 1005 2 3 N/A
5:52 am 05:52 Windy with Snow Likely 33 0.6 31 -0.6 92 92 W 20 31 29.66 1004 3 4 N/A
6:08 am 06:08 Windy with Snow Likely 34 1 30 -1 87 87 W 21 33 29.68 1005 3 5 N/A
6:52 am 06:52 Windy with Snow Likely 33 0.6 30 -1.1 89 89 W 20 31 29.69 1005 3 5 N/A
7:10 am 07:10 Cloudy with Light Snow 34 1 30 -1 87 87 W 16 26 29.71 1006 2 3 N/A
7:35 am 07:35 Cloudy with Light Snow 34 1 30 -1 87 87 W 18 30 29.74 1007 2 3 N/A
7:52 am 07:52 Cloudy with Light Snow 33 0.6 30 -1.1 89 89 W 17 28 29.72 1007 2 3 N/A
8:52 am 08:52 Cloudy with Light Snow 33 0.6 30 -1.1 89 89 W 16 26 29.77 1008 2 3 N/A
8:59 am 08:59 Cloudy with Light Snow 34 1 30 -1 87 87 W 17 28 29.80 1009 3 4 N/A
9:26 am 09:26 Cloudy with Mist and Fog 34 1 30 -1 87 87 W 21 33 29.80 1009 5 8 N/A
9:52 am 09:52 Windy with Snow Likely 34 1.1 30 -1.1 85 85 W 21 33 29.79 1009 6 10 N/A
10:52 am 10:52 Windy with Snow Likely 35 1.7 30 -1.1 82 82 W 20 31 29.83 1010 6 10 N/A
11:52 am 11:52 Windy with Snow Likely 36 2.2 31 -0.6 82 82 W 20 31 29.85 1011 8 13 N/A
12:37 pm 12:37 Cloudy with Light Snow 36 2 30 -1 81 81 W 17 28 29.88 1012 2 3 N/A
12:52 pm 12:52 Cloudy with Light Snow 36 2.2 31 -0.6 82 82 WNW 17 28 29.87 1012 2 3 N/A
1:52 pm 13:52 Windy with Snow Likely 36 2.2 31 -0.6 82 82 W 22 35 29.89 1012 2 3 N/A
2:52 pm 14:52 Windy with Snow Likely 35 1.7 30 -1.1 82 82 WNW 23 37 29.92 1013 2 3 N/A
3:52 pm 15:52 Windy with Snow Likely 36 2.2 29 -1.7 76 76 W 21 33 29.95 1014 9 14 N/A
4:52 pm 16:52 Cloudy with Light Snow 35 1.7 29 -1.7 78 78 W 18 30 29.98 1015 5 8 N/A
4:59 pm 16:59 Cloudy with Light Snow 36 2 30 -1 81 81 WNW 16 26 30.00 1016 2 3 N/A
5:14 pm 17:14 Cloudy with Haze 36 2 30 -1 81 81 WNW 15 24 30.00 1016 5 8 N/A
5:52 pm 17:52 Windy with Snow Likely 34 1.1 29 -1.7 82 82 WNW 21 33 30.01 1016 5 8 N/A
6:18 pm 18:18 Cloudy 34 1 28 -2 81 81 WNW 17 28 30.06 1018 10 16 N/A
6:52 pm 18:52 Windy with Snow Likely 34 1.1 28 -2.2 79 79 NW 20 31 30.05 1018 10 16 N/A
7:52 pm 19:52 Cloudy 33 0.6 26 -3.3 75 75 NW 20 31 30.07 1018 10 16 N/A
8:52 pm 20:52 Cloudy 33 0.6 24 -4.4 70 70 NW 14 22 30.10 1019 10 16 N/A
9:43 pm 21:43 Cloudy 34 1 21 -6 60 60 WNW 15 24 30.15 1021 10 16 N/A
9:52 pm 21:52 Cloudy 33 0.6 21 -6.1 61 61 WNW 13 20 30.11 1020 10 16 N/A
10:52 pm 22:52 Cloudy 33 0.6 22 -5.6 64 64 NW 14 22 30.11 1020 10 16 N/A
11:52 pm 23:52 Cloudy 32 undefined 24 -4.4 73 73 WNW 12 19 30.12 1020 10 16 N/A

Powered by AerisWeather